{"data":{"norad_id":67249,"epoch":"2026-09-19T23:20:49.546752Z","epoch_age_seconds":148550,"freshness":"FRESH","line1":"1 67249U 25313B   26262.97279568  .00001657  00000+0  12858-3 0  9998","line2":"2 67249  97.5013 321.6088 0291700  27.1337 334.4782 14.74702379 39103","mean_motion":14.74702379,"eccentricity":0.02917,"inclination_deg":97.5013,"raan_deg":321.6088,"arg_perigee_deg":27.1337,"mean_anomaly_deg":334.4782,"bstar":0.00012858,"rev_number":3910,"period_min":97.646821521809,"perigee_km":441.19930685641,"apogee_km":850.99307110144,"semimajor_km":7024.2331889789,"source":"CELESTRAK","updated_at":"2026-09-21T09:00:16.510861Z"}}